TimeEST,TemperatureF,Dew PointF,Humidity,Sea Level PressureIn,VisibilityMPH,Wind Direction,Wind SpeedMPH,Gust SpeedMPH,PrecipitationIn,Events,Conditions,WindDirDegrees,DateUTC
12:52 AM,50.0,41.0,71,30.15,10.0,WSW,3.5,-,N/A,,Clear,250,2011-11-13 05:52:00
1:52 AM,46.9,41.0,80,30.16,10.0,SW,3.5,-,N/A,,Clear,230,2011-11-13 06:52:00
2:52 AM,46.9,42.1,83,30.16,10.0,SW,4.6,-,N/A,,Clear,230,2011-11-13 07:52:00
3:52 AM,46.0,43.0,89,30.17,10.0,SSW,3.5,-,N/A,,Clear,210,2011-11-13 08:52:00
4:52 AM,46.9,43.0,86,30.18,10.0,SSW,3.5,-,N/A,,Clear,210,2011-11-13 09:52:00
5:52 AM,48.9,46.0,90,30.19,10.0,SSW,5.8,-,N/A,,Clear,200,2011-11-13 10:52:00
6:52 AM,48.9,46.9,93,30.20,9.0,SSW,3.5,-,N/A,,Clear,210,2011-11-13 11:52:00
7:52 AM,53.1,51.1,93,30.22,10.0,SSW,8.1,-,N/A,,Clear,210,2011-11-13 12:52:00
8:52 AM,55.0,51.1,86,30.22,10.0,SSW,6.9,-,N/A,,Clear,210,2011-11-13 13:52:00
9:52 AM,55.9,51.1,84,30.22,10.0,SSW,6.9,16.1,N/A,,Clear,210,2011-11-13 14:52:00
10:52 AM,55.9,51.1,84,30.19,10.0,SW,8.1,-,N/A,,Clear,220,2011-11-13 15:52:00
11:52 AM,55.9,51.1,84,30.17,10.0,SSW,10.4,20.7,N/A,,Clear,210,2011-11-13 16:52:00
12:52 PM,55.9,50.0,80,30.14,10.0,SSW,10.4,17.3,N/A,,Clear,210,2011-11-13 17:52:00
1:52 PM,57.0,50.0,77,30.12,10.0,SW,9.2,17.3,N/A,,Clear,220,2011-11-13 18:52:00
2:52 PM,55.0,50.0,83,30.12,10.0,SSW,8.1,-,N/A,,Clear,210,2011-11-13 19:52:00
3:52 PM,54.0,48.9,83,30.09,10.0,SSW,9.2,-,N/A,,Clear,200,2011-11-13 20:52:00
4:52 PM,54.0,48.0,80,30.08,10.0,SSW,12.7,20.7,N/A,,Clear,210,2011-11-13 21:52:00
5:52 PM,54.0,48.9,83,30.09,10.0,SSW,11.5,20.7,N/A,,Clear,210,2011-11-13 22:52:00
6:52 PM,54.0,48.0,80,30.07,10.0,SSW,9.2,17.3,N/A,,Clear,210,2011-11-13 23:52:00
7:52 PM,55.0,48.0,77,30.07,10.0,SW,13.8,24.2,N/A,,Clear,220,2011-11-14 00:52:00
8:52 PM,55.0,51.1,86,30.06,10.0,SW,11.5,20.7,N/A,,Clear,220,2011-11-14 01:52:00
9:52 PM,55.9,51.1,84,30.05,10.0,SW,13.8,24.2,N/A,,Clear,220,2011-11-14 02:52:00
10:52 PM,55.0,52.0,89,30.05,9.0,SSW,12.7,21.9,N/A,,Clear,210,2011-11-14 03:52:00
11:52 PM,55.0,52.0,89,30.03,9.0,SSW,10.4,20.7,N/A,,Clear,210,2011-11-14 04:52:00